CW3783 Weather Reports


Display with metric or nautical units.
time (UTC)temp
F
wind
direction
speed
MPH
gust
MPH
rain 1hr
in
rain 24hr
in
rain mn
in
humidity
%
barometer
mb
20260504232803 71 185 5.0 10.0 0.00 0.00 0.00 43 1007.9
20260504232304 71 177 8.0 13.0 0.00 0.00 0.00 42 1007.9
20260504231303 72 186 5.0 12.0 0.00 0.00 0.00 41 1007.9
20260504230803 72 195 5.0 12.0 0.00 0.00 0.00 41 1007.9
20260504230303 73 183 9.0 17.0 0.00 0.00 0.00 40 1007.9
20260504225804 73 194 10.0 17.0 0.00 0.00 0.00 40 1007.9
20260504225304 73 182 7.0 12.0 0.00 0.00 0.00 39 1007.9
20260504224803 74 192 7.0 15.0 0.00 0.00 0.00 39 1007.8
20260504224304 74 155 6.0 16.0 0.00 0.00 0.00 39 1007.8
20260504223304 75 171 9.0 15.0 0.00 0.00 0.00 36 1007.7
20260504222803 75 163 8.0 17.0 0.00 0.00 0.00 34 1007.5
20260504222305 76 188 8.0 14.0 0.00 0.00 0.00 33 1007.6
20260504221804 76 202 6.0 12.0 0.00 0.00 0.00 34 1007.6
20260504221303 76 205 9.0 15.0 0.00 0.00 0.00 33 1007.6
20260504220303 76 190 9.0 15.0 0.00 0.00 0.00 33 1007.5
20260504215803 76 208 9.0 20.0 0.00 0.00 0.00 33 1007.6
20260504215305 76 195 9.0 17.0 0.00 0.00 0.00 33 1007.6
20260504214803 76 205 11.0 18.0 0.00 0.00 0.00 33 1007.7
20260504214304 76 192 7.0 14.0 0.00 0.00 0.00 33 1007.7
20260504213803 76 196 6.0 10.0 0.00 0.00 0.00 33 1007.7
20260504213303 76 184 2.0 8.0 0.00 0.00 0.00 34 1007.7
20260504212803 76 196 6.0 14.0 0.00 0.00 0.00 34 1007.8
20260504212304 76 205 11.0 18.0 0.00 0.00 0.00 33 1007.9
20260504211304 77 183 7.0 17.0 0.00 0.00 0.00 33 1007.8
20260504210803 77 199 6.0 13.0 0.00 0.00 0.00 33 1007.9
20260504210304 77 211 5.0 10.0 0.00 0.00 0.00 34 1007.8
20260504205803 77 188 6.0 12.0 0.00 0.00 0.00 33 1007.9
20260504204803 77 190 9.0 17.0 0.00 0.00 0.00 32 1007.8
20260504204303 77 163 4.0 15.0 0.00 0.00 0.00 34 1007.9
20260504203803 77 184 12.0 20.0 0.00 0.00 0.00 33 1008.0
20260504202803 77 176 7.0 14.0 0.00 0.00 0.00 33 1008.2
20260504201804 77 209 5.0 12.0 0.00 0.00 0.00 34 1008.2
20260504201303 77 200 5.0 18.0 0.00 0.00 0.00 34 1008.3
20260504200303 77 209 7.0 15.0 0.00 0.00 0.00 34 1008.3
20260504195803 77 198 7.0 14.0 0.00 0.00 0.00 33 1008.4
20260504195304 77 187 10.0 18.0 0.00 0.00 0.00 34 1008.4
20260504194804 76 292 2.0 8.0 0.00 0.00 0.00 36 1008.5
20260504194303 76 224 10.0 15.0 0.00 0.00 0.00 34 1008.7
20260504193303 76 181 12.0 18.0 0.00 0.00 0.00 34 1008.9
20260504192804 76 193 5.0 20.0 0.00 0.00 0.00 34 1009.0
20260504192304 76 182 6.0 10.0 0.00 0.00 0.00 35 1009.0
20260504191804 76 211 5.0 13.0 0.00 0.00 0.00 35 1009.2
20260504191304 76 206 7.0 15.0 0.00 0.00 0.00 35 1009.3
20260504190303 76 208 5.0 17.0 0.00 0.00 0.00 35 1009.4
20260504185803 76 196 10.0 16.0 0.00 0.00 0.00 33 1009.4
20260504185304 76 193 9.0 14.0 0.00 0.00 0.00 34 1009.5
20260504184803 76 178 7.0 12.0 0.00 0.00 0.00 35 1009.7
20260504184303 76 226 3.0 13.0 0.00 0.00 0.00 35 1009.7
20260504183803 76 212 8.0 15.0 0.00 0.00 0.00 34 1009.8
20260504183303 75 184 8.0 14.0 0.00 0.00 0.00 34 1009.9
20260504182804 75 201 5.0 13.0 0.00 0.00 0.00 33 1009.9
20260504182304 75 216 3.0 13.0 0.00 0.00 0.00 35 1009.9
20260504181803 75 290 5.0 10.0 0.00 0.00 0.00 35 1009.9
20260504181304 74 270 9.0 15.0 0.00 0.00 0.00 33 1010.0
20260504180804 74 202 8.0 17.0 0.00 0.00 0.00 34 1010.1
20260504180303 74 173 9.0 16.0 0.00 0.00 0.00 34 1010.1
20260504175803 74 189 6.0 14.0 0.00 0.00 0.00 34 1010.3
20260504175304 74 217 7.0 12.0 0.00 0.00 0.00 33 1010.3
20260504174803 74 197 9.0 15.0 0.00 0.00 0.00 32 1010.4
20260504174303 74 232 10.0 17.0 0.00 0.00 0.00 32 1010.4
20260504173805 74 184 7.0 12.0 0.00 0.00 0.00 34 1010.4
20260504173304 74 147 7.0 15.0 0.00 0.00 0.00 32 1010.5
20260504172803 74 190 7.0 15.0 0.00 0.00 0.00 32 1010.6
20260504172304 74 189 5.0 14.0 0.00 0.00 0.00 32 1010.6
20260504171803 74 253 6.0 12.0 0.00 0.00 0.00 33 1010.7
20260504170304 73 264 4.0 13.0 0.00 0.00 0.00 35 1010.9
20260504160304 70 212 6.0 13.0 0.00 0.00 0.00 35 1011.7
20260504150803 68 185 6.0 10.0 0.00 0.00 0.00 36 1012.3
20260504150303 68 172 8.0 12.0 0.00 0.00 0.00 38 1012.3
20260504141304 65 175 3.0 6.0 0.00 0.00 0.00 45 1012.4
20260504140804 65 177 2.0 7.0 0.00 0.00 0.00 48 1012.5
20260504140304 64 143 4.0 8.0 0.00 0.00 0.00 49 1012.6
20260504130803 60 166 3.0 5.0 0.00 0.00 0.00 54 1012.7
20260504130303 59 201 2.0 6.0 0.00 0.00 0.00 57 1012.8
20260504120303 53 234 3.0 8.0 0.00 0.00 0.00 63 1013.2
20260504110303 49 198 1.0 5.0 0.00 0.00 0.00 68 1013.3
20260504081803 49 227 2.0 5.0 0.00 0.00 0.00 65 1013.7
20260504081304 49 219 2.0 3.0 0.00 0.00 0.00 65 1013.8
20260504080803 49 212 2.0 3.0 0.00 0.00 0.00 65 1013.7
20260504080304 49 207 2.0 3.0 0.00 0.00 0.00 65 1013.7
20260504070303 50 219 3.0 5.0 0.00 0.00 0.00 60 1013.9
20260504050304 49 251 2.0 7.0 0.00 0.00 0.00 57 1013.9
20260504045804 50 221 2.0 5.0 0.00 0.00 0.00 57 1014.0
20260504045304 50 208 2.0 3.0 0.00 0.00 0.00 56 1014.0
20260504044803 50 208 2.0 3.0 0.00 0.00 0.00 55 1013.9
20260504044304 50 220 3.0 8.0 0.00 0.00 0.00 54 1014.0
20260504043804 50 241 3.0 7.0 0.00 0.00 0.00 54 1014.0
20260504043304 50 238 3.0 6.0 0.00 0.00 0.00 54 1013.9
20260504042803 50 242 3.0 5.0 0.00 0.00 0.00 55 1013.9
20260504042304 50 196 2.0 6.0 0.00 0.00 0.00 54 1014.0
20260504041304 50 257 3.0 3.0 0.00 0.00 0.00 53 1013.9
20260504040804 50 260 2.0 5.0 0.00 0.00 0.00 54 1013.9
20260504040304 50 208 3.0 9.0 0.00 0.00 0.00 53 1013.9
20260504035803 49 253 4.0 7.0 0.00 0.00 0.00 53 1013.8
20260504034803 49 251 4.0 7.0 0.00 0.00 0.00 55 1013.8
20260504034303 49 233 2.0 7.0 0.00 0.00 0.00 55 1013.7
20260504033803 50 223 2.0 3.0 0.00 0.00 0.00 56 1013.7
20260504033303 50 190 2.0 3.0 0.00 0.00 0.00 54 1013.6
20260504032803 50 230 1.0 3.0 0.00 0.00 0.00 53 1013.5
20260504032304 50 265 1.0 3.0 0.00 0.00 0.00 52 1013.4
20260504031803 50 262 2.0 3.0 0.00 0.00 0.00 52 1013.4
20260504030803 51 247 1.0 3.0 0.00 0.00 0.00 51 1013.4
20260504030303 51 256 2.0 3.0 0.00 0.00 0.00 51 1013.4
20260504025803 51 242 2.0 5.0 0.00 0.00 0.00 51 1013.4
20260504025304 51 238 2.0 3.0 0.00 0.00 0.00 50 1013.5
20260504024803 51 239 1.0 3.0 0.00 0.00 0.00 50 1013.4
20260504024303 51 244 2.0 3.0 0.00 0.00 0.00 49 1013.4
20260504023803 51 233 3.0 5.0 0.00 0.00 0.00 49 1013.4
20260504022803 51 236 2.0 5.0 0.00 0.00 0.00 52 1013.4
20260504022304 51 219 2.0 3.0 0.00 0.00 0.00 52 1013.4
20260504021803 51 224 2.0 3.0 0.00 0.00 0.00 51 1013.4
20260504021304 52 229 2.0 3.0 0.00 0.00 0.00 51 1013.3
20260504020803 52 234 2.0 3.0 0.00 0.00 0.00 50 1013.2
20260504015804 52 246 2.0 3.0 0.00 0.00 0.00 50 1013.3
20260504015305 52 246 1.0 3.0 0.00 0.00 0.00 49 1013.3
20260504014803 53 246 1.0 2.0 0.00 0.00 0.00 47 1013.3
20260504014303 53 246 1.0 2.0 0.00 0.00 0.00 46 1013.2
20260504013304 53 236 2.0 5.0 0.00 0.00 0.00 44 1013.2
20260504012304 54 237 2.0 3.0 0.00 0.00 0.00 44 1013.1
20260504011804 54 245 2.0 3.0 0.00 0.00 0.00 44 1013.1
20260504011304 55 245 2.0 3.0 0.00 0.00 0.00 43 1013.1
20260504010804 55 245 2.0 3.0 0.00 0.00 0.00 42 1013.0
20260504010304 55 245 2.0 3.0 0.00 0.00 0.00 42 1013.0
20260504005803 56 245 2.0 3.0 0.00 0.00 0.00 42 1013.0
20260504005306 56 245 2.0 3.0 0.00 0.00 0.00 41 1012.9
20260504004803 56 247 2.0 3.0 0.00 0.00 0.00 41 1012.8
20260504003803 56 264 1.0 3.0 0.00 0.00 0.00 40 1012.7
20260504003304 57 254 1.0 3.0 0.00 0.00 0.00 39 1012.7
20260504002803 57 243 2.0 3.0 0.00 0.00 0.00 38 1012.7
20260504002304 57 242 2.0 3.0 0.00 0.00 0.00 37 1012.6
20260504001805 58 247 1.0 3.0 0.00 0.00 0.00 37 1012.6
20260504001304 58 238 1.0 3.0 0.00 0.00 0.00 37 1012.6
20260504000803 58 283 1.0 2.0 0.00 0.00 0.00 37 1012.5
20260503235304 59 258 1.0 3.0 0.00 0.00 0.00 35 1012.4
20260503234803 59 287 2.0 6.0 0.00 0.00 0.00 36 1012.4
20260503234303 59 302 2.0 6.0 0.00 0.00 0.00 35 1012.4
20260503233804 59 289 2.0 6.0 0.00 0.00 0.00 35 1012.3
20260503233303 60 252 2.0 5.0 0.00 0.00 0.00 35 1012.2